Flag for U.S.A. Weather past 2 weeks in Shreveport, Louisiana, U.S.A.

Now
91 °F

Partly sunny.


Feels Like: 100 °F
Forecast: 77 / 92 °F
Wind: 16 mph from South

Location: Shreveport Regional Airport

Current Time: Jul 7, 2015 at 5:50:31 PM

Latest Report: Jul 7, 2015 at 4:56 PM


Visibility: 10 mi

Pressure: 29.96 "Hg

Humidity: 56%

Dew point: 73 °F

Location of ShreveportLocation

Historic Weather in Shreveport — Graph

°F

Shreveport temperature yesterday

Maximum temperature yesterday: 92 °F (at 2:56 PM)
Minimum temperature yesterday: 74 °F (at 12:56 AM)
Average temperature yesterday: 83 °F

Past Weeks' High & Low Weather Summary

 TemperatureHumidityPressure
High95 °F (Jun 24, 1:56 PM)96% (Jun 29, 6:56 PM)30.16 "Hg (Jun 29, 6:56 PM)
Low70 °F (Jul 4, 4:56 PM)41% (Jun 28, 3:56 PM)29.88 "Hg (Jun 26, 6:56 PM)
Average82 °F74%30.00 "Hg
* Reported Jun 22 3:56 PM — Jul 7 3:56 PM, Shreveport, Weather by CustomWeather, © 2015

Note: Actual official high and low records may vary slightly from our data, if they occured in-between our weather recording intervals... More about our weather records

Advertising

Shreveport weather history for previous 24 hours

 ConditionsComfort  
Time TempWeatherWind HumidityBarometerVisibility
3:56 PM
Tue, Jul 7
92 °FScattered clouds.12 mph52%29.97 "Hg10 mi
2:56 PM93 °FSunny.13 mph50%29.98 "Hg10 mi
1:56 PM92 °FPassing clouds.14 mph51%30.00 "Hg10 mi
12:56 PM92 °FScattered clouds.14 mph54%30.02 "Hg10 mi
11:56 AM89 °FBroken clouds.10 mph61%30.03 "Hg10 mi
10:56 AM86 °FBroken clouds.10 mph70%30.03 "Hg10 mi
9:56 AM86 °FBroken clouds.13 mph70%30.02 "Hg10 mi
8:56 AM83 °FPartly sunny.13 mph79%30.03 "Hg10 mi
7:56 AM80 °FHigh level clouds.10 mph85%30.02 "Hg10 mi
6:56 AM77 °FHigh level clouds.6 mph90%30.02 "Hg9 mi
5:56 AM76 °FHigh level clouds.5 mph94%30.01 "Hg10 mi
4:56 AM77 °FHigh level clouds.6 mph90%29.99 "Hg10 mi
3:56 AM77 °FHigh level clouds.7 mph88%30.00 "Hg10 mi
2:56 AM77 °FHigh level clouds.7 mph88%30.02 "Hg10 mi
1:56 AM77 °FHigh level clouds.7 mph88%30.03 "Hg10 mi
12:56 AM78 °FHigh level clouds.5 mph82%30.03 "Hg10 mi
11:56 PM
Mon, Jul 6
79 °FHigh level clouds.7 mph79%30.03 "Hg10 mi
10:56 PM81 °FPassing clouds.9 mph72%30.00 "Hg10 mi
9:56 PM82 °FClear.7 mph70%29.99 "Hg10 mi
8:56 PM84 °FOvercast.9 mph63%29.96 "Hg10 mi
7:56 PM87 °FPartly sunny.10 mph63%29.91 "Hg10 mi
6:56 PM89 °FScattered clouds.9 mph57%29.94 "Hg10 mi
5:56 PM91 °FScattered clouds.12 mph52%29.96 "Hg10 mi
Weather by CustomWeather, © 2015

See weather overviewHow to use our weather pages